Content
SEND FEEDBACK

Daily
Averages
Monthly
Summary
Canada

SASKATOON, SASKATCHEWAN


Home > North America > Canada > Saskatchewan
Elevation: 1653 feet     Latitude: 52 10N     Longitude: 106 41W

WEATHER
 
SELECT A DAY
Number of Records: 187,435;   Date Range: 1/1/95 - 8/27/14
 
SHARE

PRINT THIS DATA

[ ← Previous Day ]
WEATHER ALMANAC - OCTOBER 29, 2013
[ Next Day → ]
[ °C ]   °F
Weather ElementAverageHighLow
Temperature22.8 °F37.4 °F (3:00 pm)8.6 °F (2:00 am)
Dewpoint16.3 °F23 °F (3:00 pm)5 °F (2:00 am)
Humidity77.5 %93 % (11:00 pm)56 % (1:00 pm)
Barometer30.17 in30.45 in (1:00 am)29.95 in (11:00 pm)
Wind Speed11.1 mph20.7 mph (2:00 pm)
Wind Gust26.5 mph (2:00 pm)
Weather ElementAverage
Visibility15 mi
Wind DirectionSSW (209.6 °)

Weather ElementTotal
Precipitation---
Heating Degree Days42 (Base 65)
Averaged from 23 records on October 29, 2013
WEATHER CONDITIONS BREAKOUT
WIND DIRECTION BREAKOUT
WEATHER BY HOUR - OCTOBER 29, 2013
[ °C ]   °F
Local TimeTemperatureDewpointHumidityBarometerVisibilityWind DirectionWind SpeedGust SpeedPrecipitationEventsConditions
1:00 AM10.4 °F6.8 °F85 %30.45 in15.0 miSSW (210°)6.9 mphPartly Cloudy
2:00 AM8.6 °F5.0 °F85 %30.41 in15.0 miSSW (210°)8.1 mphClear
3:00 AM10.4 °F6.8 °F85 %30.38 in15.0 miSouth (190°)8.1 mphClear
4:00 AM12.2 °F8.6 °F85 %30.36 in15.0 miSouth (190°)8.1 mphClear
5:00 AM12.2 °F8.6 °F85 %30.32 in15.0 miSouth (190°)9.2 mphClear
6:00 AM10.4 °F8.6 °F92 %30.30 in15.0 miSouth (170°)5.8 mphClear
7:00 AM12.2 °F8.6 °F85 %30.29 in15.0 miSSW (200°)5.8 mphPartly Cloudy
8:00 AM15.8 °F12.2 °F86 %30.25 in15.0 miSSW (210°)15.0 mphScattered Clouds
9:00 AM15.8 °F12.2 °F86 %30.24 in15.0 miSSW (210°)10.4 mphMostly Cloudy
10:00 AM19.4 °F14.0 °F80 %30.21 in15.0 miSSW (210°)10.4 mphMostly Cloudy
11:00 AM23.0 °F17.6 °F80 %30.18 in15.0 miSW (220°)13.8 mph19.6 mphMostly Cloudy
12:00 PM28.4 °F19.4 °F69 %30.17 in15.0 miSW (220°)15.0 mph23.0 mphMostly Cloudy
1:00 PM33.8 °F19.4 °F56 %30.14 in15.0 miWSW (240°)13.8 mph19.6 mphMostly Cloudy
2:00 PM35.6 °F21.2 °F56 %30.09 in15.0 miSW (220°)20.7 mph26.5 mphMostly Cloudy
3:00 PM37.4 °F23.0 °F56 %30.07 in15.0 miSW (230°)17.3 mphMostly Cloudy
4:00 PM37.4 °F23.0 °F56 %30.03 in15.0 miSW (220°)16.1 mphScattered Clouds
5:00 PM35.6 °F23.0 °F60 %30.01 in15.0 miSSW (210°)13.8 mph20.7 mphScattered Clouds
6:00 PM30.2 °F23.0 °F75 %30.01 in15.0 miSW (220°)9.2 mphMostly Cloudy
7:00 PM26.6 °F21.2 °F80 %30.01 in15.0 miSSW (210°)9.2 mphScattered Clouds
8:00 PM30.2 °F23.0 °F75 %29.98 in15.0 miSSW (210°)12.7 mphScattered Clouds
9:00 PM26.6 °F23.0 °F86 %29.98 in15.0 miSSW (210°)8.1 mphScattered Clouds
10:00 PM26.6 °F23.0 °F86 %29.97 in15.0 miSSW (210°)9.2 mphClear
11:00 PM24.8 °F23.0 °F93 %29.95 in15.0 miSSW (210°)9.2 mphClear
Hourly data recorded from CYXE, located miles away from Saskatoon, Saskatchewan







STORIES FROM OUR PARTNERS